Hourly Data Report for May 11, 2004

SHERBROOKE A
QUEBEC

45°26'00.000" N
71°41'00.000" W
241.40 m
7028124
71610
YSC

Download Data

Hourly Data (May 2004)
Hourly Data Report for May 11, 2004
TIME
LST
Temp Definition
°C
Dew Point Definition
°C
Rel Hum Definition
%
Precip. Amount Definition
mm

Wind Dir Definition
10's deg

Wind Spd Definition
km/h
Visibility Definition
km
Stn Press Definition
kPa
Hmdx Definition


Wind Chill Definition


Weather Definition


00:00 11.2 9.7 90     0 15.0 98.43      
01:00 11.2 10.0 92     0 15.0 98.38      
02:00 11.4 10.0 91   8 4 15.0 98.36      
03:00 11.4 10.2 92   30 4 11.3 98.41     Rain
04:00 12.7 11.5 92   23 6 8.0 98.43     Rain
05:00 13.0 11.9 93   26 6 8.0 98.50      
06:00 13.5 12.6 94   25 6 6.4 98.61     Rain
07:00 14.6 13.6 94   23 11 8.0 98.68     Rain Showers
08:00 15.3 14.0 92   27 17 16.1 98.72     Rain Showers
09:00 14.7 13.0 90   32 13 9.7 98.85     Fog
10:00 13.5 11.7 89   33 9 16.1 98.95     Cloudy
11:00 14.7 11.0 78   32 11 16.1 98.98     Cloudy
12:00 15.8 9.1 64   32 17 24.1 99.00     Mostly Cloudy
13:00 17.7 8.6 55   31 13 24.1 98.96     Mostly Cloudy
14:00 18.4 8.4 52   27 20 24.1 98.91     Mainly Clear
15:00 18.6 7.3 48   28 9 24.1 98.94     Mainly Clear
16:00 19.0 6.2 43   28 19 24.1 98.97     Mainly Clear
17:00 19.0 5.6 41   31 17 15.0 99.04      
18:00 18.1 6.0 45   30 7 15.0 99.04      
19:00 15.7 6.4 54   29 4 15.0 99.08      
20:00 11.0 6.5 74     0 15.0 99.09      
21:00 9.1 5.9 80   12 6 15.0 99.10      
22:00 8.1 6.3 88     0 15.0 99.12      
23:00 6.6 5.1 90     0 15.0 99.17      

Notes on Data Quality.

Legend

  • E = Estimated
  • M = Missing
  • NA = Not Available*
  • [empty] = Indicates an unobserved value
Date modified: